Brownwood, TX

2:13 AM CDT on April 30, 2017 (GMT -0500)
Brownwood Regional

Weather History for KBWD - March, 2014

Change the Weather History Date:

Wednesday, March 26, 2014

  Actual Average (KABI) Record (KABI)
Temperature  
Mean Temperature 53 °F -  
Max Temperature 60 °F 68 °F 92 °F (1890)
Min Temperature 46 °F 45 °F 19 °F (1955)
Degree Days  
Heating Degree Days 12    
Growing Degree Days 3 (Base 50)    
Moisture  
Dew Point 42 °F    
Average Humidity 63    
Maximum Humidity 82    
Minimum Humidity 35    
Precipitation  
Precipitation 0.01 in - - ()
Sea Level Pressure  
Sea Level Pressure 30.01 in    
Wind  
Wind Speed 12 mph (SSE)    
Max Wind Speed 24 mph    
Max Gust Speed 37 mph    
Visibility 10 miles    
Events Rain    
Averages and records for this station are not official NWS values.
T = Trace of Precipitation, MM = Missing Value Source: NWS Daily Summary

Daily Weather History Graph

Daily Weather History Graph

Search for Another Location

Airport or City:

Trip Planner

Search our weather history database for the weather conditions in past years. The results will help you decide how hot, cold, wet, or windy it might be!

Date:

Astronomy

Mar. 26, 2014 Rise Set
Actual Time 7:31 AM CDT 7:51 PM CDT
Civil Twilight 7:07 AM CDT 8:15 PM CDT
Nautical Twilight 6:38 AM CDT 8:44 PM CDT
Astronomical Twilight 6:10 AM CDT 9:13 PM CDT
Moon 4:26 AM CDT (3/26) 3:45 PM CDT (3/26)
Length of Visible Light 13h 08m
Length of Day
12h 19m
Waning Crescent, 21% of the Moon is Illuminated
Mar 26
Waning Crescent
Mar 30
New
Apr 7
First Quarter
Apr 15
Full
Apr 22
Last Quarter

Hourly Weather History & Observations

Time (CDT) Temp. Windchill Dew Point Humidity Pressure Visibility Wind Dir Wind Speed Gust Speed Precip Events Conditions
12:15 AM 48.2 °F - 23.0 °F 37% 30.19 in 10.0 mi SE 6.9 mph - N/A   Mostly Cloudy
12:35 AM 46.4 °F 43.5 °F 24.8 °F 43% 30.19 in 10.0 mi SE 5.8 mph - N/A   Overcast
12:55 AM 46.4 °F 42.4 °F 23.0 °F 40% 30.17 in 10.0 mi SE 8.1 mph - N/A   Overcast
1:15 AM 48.2 °F - 24.8 °F 40% 30.16 in 10.0 mi SE 9.2 mph - N/A   Mostly Cloudy
1:35 AM 48.2 °F - 24.8 °F 40% 30.16 in 10.0 mi SE 8.1 mph - N/A   Mostly Cloudy
1:55 AM 48.2 °F - 24.8 °F 40% 30.15 in 10.0 mi SE 6.9 mph - N/A   Mostly Cloudy
2:15 AM 48.2 °F - 24.8 °F 40% 30.15 in 10.0 mi SE 6.9 mph - N/A   Mostly Cloudy
2:35 AM 48.2 °F - 24.8 °F 40% 30.14 in 10.0 mi SE 8.1 mph - N/A   Mostly Cloudy
2:55 AM 46.4 °F 43.5 °F 24.8 °F 43% 30.13 in 10.0 mi SE 5.8 mph - N/A   Overcast
3:15 AM 48.2 °F - 26.6 °F 43% 30.12 in 10.0 mi SE 6.9 mph - N/A   Overcast
3:35 AM 48.2 °F - 26.6 °F 43% 30.10 in 10.0 mi SE 9.2 mph - N/A   Overcast
3:55 AM 50.0 °F - 26.6 °F 40% 30.10 in 10.0 mi SE 9.2 mph - N/A   Overcast
4:15 AM 50.0 °F - 26.6 °F 40% 30.08 in 10.0 mi SE 10.4 mph - N/A   Overcast
4:35 AM 50.0 °F - 26.6 °F 40% 30.08 in 10.0 mi SE 8.1 mph - N/A   Overcast
4:55 AM 50.0 °F - 26.6 °F 40% 30.07 in 10.0 mi SSE 9.2 mph - N/A   Overcast
5:15 AM 53.6 °F - 26.6 °F 35% 30.07 in 10.0 mi SSE 12.7 mph - N/A   Overcast
5:35 AM 53.6 °F - 30.2 °F 41% 30.06 in 10.0 mi SSE 13.8 mph 17.3 mph N/A   Overcast
5:55 AM 53.6 °F - 32.0 °F 44% 30.06 in 10.0 mi SSE 12.7 mph - N/A   Overcast
6:15 AM 51.8 °F - 32.0 °F 47% 30.06 in 10.0 mi SE 13.8 mph - N/A   Overcast
6:35 AM 51.8 °F - 39.2 °F 62% 30.06 in 5.0 mi SSE 15.0 mph 20.7 mph N/A   Haze
6:55 AM 50.0 °F - 41.0 °F 71% 30.07 in 10.0 mi SSE 6.9 mph - N/A   Overcast
7:15 AM 48.2 °F - 41.0 °F 76% 30.07 in 10.0 mi SE 6.9 mph - N/A   Overcast
7:35 AM 50.0 °F - 42.8 °F 76% 30.07 in 10.0 mi SE 6.9 mph - N/A   Overcast
7:55 AM 50.0 °F - 42.8 °F 76% 30.09 in 10.0 mi SSE 8.1 mph - N/A   Overcast
8:15 AM 50.0 °F - 42.8 °F 76% 30.09 in 10.0 mi SE 8.1 mph - N/A   Overcast
8:35 AM 50.0 °F - 44.6 °F 82% 30.08 in 7.0 mi SE 9.2 mph - 0.01 in Rain Light Rain
8:55 AM 50.0 °F - 44.6 °F 82% 30.09 in 10.0 mi SE 8.1 mph - 0.01 in   Overcast
9:15 AM 51.8 °F - 44.6 °F 76% 30.09 in 10.0 mi SE 10.4 mph - N/A   Overcast
9:35 AM 53.6 °F - 44.6 °F 72% 30.08 in 10.0 mi SE 11.5 mph - N/A   Overcast
9:55 AM 53.6 °F - 44.6 °F 72% 30.06 in 10.0 mi SE 11.5 mph 19.6 mph N/A   Overcast
10:15 AM 55.4 °F - 42.8 °F 63% 30.05 in 10.0 mi SSE 16.1 mph 20.7 mph N/A   Overcast
10:35 AM 55.4 °F - 41.0 °F 58% 30.06 in 10.0 mi SSE 17.3 mph 28.8 mph N/A   Overcast
10:55 AM 55.4 °F - 41.0 °F 58% 30.05 in 10.0 mi SSE 16.1 mph 20.7 mph N/A   Overcast
11:15 AM 57.2 °F - 42.8 °F 59% 30.06 in 10.0 mi SSE 16.1 mph 23.0 mph N/A   Overcast
11:35 AM 57.2 °F - 44.6 °F 63% 30.05 in 10.0 mi South 18.4 mph 27.6 mph N/A   Overcast
11:55 AM 59.0 °F - 44.6 °F 59% 30.03 in 10.0 mi South 19.6 mph 27.6 mph N/A   Overcast
12:15 PM 59.0 °F - 44.6 °F 59% 30.02 in 10.0 mi SSE 20.7 mph 31.1 mph N/A   Overcast
12:35 PM 59.0 °F - 44.6 °F 59% 30.02 in 10.0 mi South 20.7 mph 29.9 mph N/A   Overcast
12:55 PM 59.0 °F - 44.6 °F 59% 30.01 in 10.0 mi South 18.4 mph 33.4 mph N/A   Overcast
1:15 PM 60.8 °F - 44.6 °F 55% 30.01 in 10.0 mi South 21.9 mph 31.1 mph N/A   Overcast
1:35 PM 59.0 °F - 44.6 °F 59% 30.01 in 10.0 mi South 19.6 mph 27.6 mph N/A   Overcast
1:55 PM 59.0 °F - 46.4 °F 63% 30.00 in 10.0 mi South 21.9 mph 29.9 mph N/A   Overcast
2:15 PM 59.0 °F - 46.4 °F 63% 29.99 in 10.0 mi South 23.0 mph 27.6 mph N/A   Overcast
2:35 PM 59.0 °F - 46.4 °F 63% 29.98 in 10.0 mi South 23.0 mph 29.9 mph N/A   Overcast
2:55 PM 59.0 °F - 46.4 °F 63% 29.98 in 10.0 mi South 23.0 mph 27.6 mph N/A   Overcast
3:15 PM 59.0 °F - 46.4 °F 63% 29.96 in 10.0 mi South 20.7 mph 28.8 mph N/A   Overcast
3:35 PM 60.8 °F - 46.4 °F 59% 29.95 in 10.0 mi South 21.9 mph 26.5 mph N/A   Overcast
3:55 PM 60.8 °F - 46.4 °F 59% 29.94 in 10.0 mi South 19.6 mph 26.5 mph N/A   Overcast
4:15 PM 60.8 °F - 50.0 °F 68% 29.93 in 10.0 mi South 20.7 mph 35.7 mph N/A   Overcast
4:35 PM 59.0 °F - 50.0 °F 72% 29.93 in 10.0 mi South 18.4 mph 35.7 mph N/A   Overcast
4:55 PM 59.0 °F - 50.0 °F 72% 29.92 in 10.0 mi South 19.6 mph 33.4 mph N/A   Overcast
5:15 PM 59.0 °F - 50.0 °F 72% 29.92 in 10.0 mi South 23.0 mph 36.8 mph N/A   Overcast
5:35 PM 59.0 °F - 50.0 °F 72% 29.91 in 10.0 mi South 24.2 mph 34.5 mph N/A   Overcast
5:55 PM 59.0 °F - 50.0 °F 72% 29.91 in 10.0 mi South 23.0 mph 29.9 mph N/A   Overcast
6:15 PM 59.0 °F - 50.0 °F 72% 29.90 in 10.0 mi South 18.4 mph 28.8 mph N/A   Overcast
6:35 PM 59.0 °F - 50.0 °F 72% 29.90 in 10.0 mi SSE 19.6 mph 23.0 mph N/A   Overcast
6:55 PM 59.0 °F - 50.0 °F 72% 29.90 in 10.0 mi South 16.1 mph 25.3 mph N/A   Overcast
7:15 PM 59.0 °F - 50.0 °F 72% 29.89 in 10.0 mi South 17.3 mph 24.2 mph N/A   Overcast
7:35 PM 59.0 °F - 50.0 °F 72% 29.89 in 10.0 mi South 23.0 mph 32.2 mph N/A   Overcast
7:55 PM 59.0 °F - 50.0 °F 72% 29.89 in 10.0 mi South 19.6 mph 32.2 mph N/A   Overcast
8:15 PM 59.0 °F - 51.8 °F 77% 29.89 in 10.0 mi South 17.3 mph 27.6 mph N/A   Overcast
8:35 PM 59.0 °F - 51.8 °F 77% 29.90 in 10.0 mi SSE 15.0 mph 27.6 mph N/A   Overcast
8:55 PM 59.0 °F - 53.6 °F 82% 29.89 in 10.0 mi SSE 21.9 mph 28.8 mph N/A   Overcast
9:15 PM 59.0 °F - 53.6 °F 82% 29.89 in 10.0 mi South 18.4 mph 26.5 mph N/A   Overcast
9:35 PM 59.0 °F - 53.6 °F 82% 29.89 in 10.0 mi SSE 19.6 mph 25.3 mph N/A   Overcast
9:55 PM 59.0 °F - 53.6 °F 82% 29.89 in 10.0 mi South 15.0 mph 27.6 mph N/A   Overcast
10:15 PM 59.0 °F - 53.6 °F 82% 29.88 in 10.0 mi SSE 19.6 mph 27.6 mph N/A   Overcast
10:35 PM 59.0 °F - 53.6 °F 82% 29.88 in 10.0 mi South 16.1 mph 24.2 mph N/A   Overcast
10:55 PM 59.0 °F - 53.6 °F 82% 29.88 in 10.0 mi SSE 17.3 mph 26.5 mph N/A   Overcast
11:15 PM 59.0 °F - 53.6 °F 82% 29.88 in 10.0 mi South 16.1 mph 26.5 mph N/A   Overcast
11:35 PM 59.0 °F - 53.6 °F 82% 29.88 in 10.0 mi South 16.1 mph 23.0 mph N/A   Overcast
11:55 PM 60.8 °F - 53.6 °F 77% 29.88 in 10.0 mi South 18.4 mph 24.2 mph N/A   Overcast